Weather History for Cordova, AK

Change the Weather History Date:

Tuesday, October 8, 2013

  Actual Average Record
Temperature  
Mean Temperature 44 °F -  
Max Temperature 46 °F 49 °F 62 °F (1967)
Min Temperature 41 °F 35 °F 19 °F (1958)
Degree Days  
Heating Degree Days 22    
Moisture  
Dew Point 39 °F    
Average Humidity 83    
Maximum Humidity 93    
Minimum Humidity 73    
Precipitation  
Precipitation 2.60 in - - ()
Sea Level Pressure  
Sea Level Pressure 29.47 in    
Wind  
Wind Speed 9 mph (East)    
Max Wind Speed 20 mph    
Max Gust Speed 41 mph    
Visibility 6 miles    
Events Rain    
Averages and records for this station are not official NWS values.
T = Trace of Precipitation, MM = Missing Value Source: NWS Daily Summary

Daily Weather History Graph

Daily Weather History Graph

Search for Another Location

Airport:

Trip Planner

Search our weather history database for the weather conditions in past years. The results will help you decide how hot, cold, wet, or windy it might be!

Date:

Astronomy

Oct. 08, 2013 Rise Set
Actual Time 8:05 AM AKDT 6:51 PM AKDT
Civil Twilight 7:23 AM AKDT 7:33 PM AKDT
Nautical Twilight 6:34 AM AKDT 8:22 PM AKDT
Astronomical Twilight 5:44 AM AKDT 9:12 PM AKDT
Moon 1:14 PM AKDT (10/8) 8:30 PM AKDT (10/8)
Length of Visible Light 12h 09m
Length of Day
10h 45m
Waxing Crescent, 17% of the Moon is Illuminated
Oct 8
Waxing Crescent
Oct 11
First Quarter
Oct 18
Full
Oct 26
Last Quarter
Nov 3
New

Hourly Weather History & Observations

Time (AKDT) Temp. Windchill Dew Point Humidity Pressure Visibility Wind Dir Wind Speed Gust Speed Precip Events Conditions
12:53 AM 41.0 °F 39.0 °F 36.0 °F 82% 29.93 in 10.0 mi ESE 3.5 mph - N/A   Overcast
1:53 AM 43.0 °F 39.5 °F 36.0 °F 76% 29.91 in 10.0 mi ENE 5.8 mph - N/A   Overcast
2:53 AM 45.0 °F 41.8 °F 37.9 °F 76% 29.89 in 10.0 mi ENE 5.8 mph - 0.00 in Rain Light Rain
3:53 AM 45.0 °F 41.2 °F 39.9 °F 82% 29.88 in 6.0 mi ESE 6.9 mph - 0.04 in Rain Rain
4:53 AM 45.0 °F 40.6 °F 39.9 °F 82% 29.84 in 6.0 mi East 8.1 mph 18.4 mph 0.06 in Rain Light Rain
5:53 AM 44.1 °F 38.6 °F 39.9 °F 85% 29.82 in 5.0 mi East 10.4 mph 24.2 mph 0.10 in Rain Rain
6:51 AM 44.6 °F 38.1 °F 39.2 °F 81% 29.78 in 6.0 mi ESE 13.8 mph 31.1 mph 0.08 in Rain Rain
6:53 AM 44.1 °F 37.4 °F 39.9 °F 85% 29.78 in 6.0 mi East 13.8 mph 28.8 mph 0.09 in Rain Rain
7:20 AM 42.8 °F 36.6 °F 39.2 °F 87% 29.76 in 6.0 mi East 11.5 mph 26.5 mph 0.03 in Rain Light Rain
7:53 AM 43.0 °F 37.7 °F 39.0 °F 86% 29.74 in 5.0 mi East 9.2 mph 18.4 mph 0.09 in Rain Rain
8:22 AM 42.8 °F 34.8 °F 37.4 °F 81% 29.71 in 5.0 mi East 17.3 mph 31.1 mph 0.05 in Rain Rain
8:53 AM 42.1 °F 36.6 °F 37.9 °F 85% 29.70 in 6.0 mi East 9.2 mph 19.6 mph 0.11 in Rain Rain
9:53 AM 41.0 °F 34.3 °F 37.0 °F 86% 29.67 in 3.0 mi East 11.5 mph 20.7 mph 0.16 in Rain Rain
10:53 AM 41.0 °F 33.1 °F 37.0 °F 86% 29.60 in 5.0 mi East 15.0 mph 23.0 mph 0.20 in Rain Rain
11:53 AM 42.1 °F 35.2 °F 37.0 °F 82% 29.55 in 3.0 mi ESE 12.7 mph 27.6 mph 0.13 in Rain Rain
12:53 PM 42.1 °F 35.2 °F 37.0 °F 82% 29.48 in 4.0 mi East 12.7 mph 26.5 mph 0.11 in Rain Light Rain
1:16 PM 42.8 °F 34.3 °F 37.4 °F 81% 29.44 in 4.0 mi East 19.6 mph 33.4 mph 0.03 in Rain Light Rain
1:53 PM 46.0 °F 39.0 °F 37.9 °F 73% 29.41 in 9.0 mi East 17.3 mph 41.4 mph 0.06 in Rain Light Rain
2:53 PM 46.0 °F 38.5 °F 39.0 °F 76% 29.34 in 6.0 mi East 19.6 mph 31.1 mph 0.04 in Rain Rain
3:53 PM 46.0 °F 38.5 °F 39.0 °F 76% 29.30 in 6.0 mi ESE 19.6 mph 32.2 mph 0.08 in Rain Rain
4:53 PM 46.9 °F - 39.9 °F 77% 29.23 in 8.0 mi East 16.1 mph 31.1 mph 0.06 in Rain Rain
5:53 PM 46.0 °F 39.9 °F 41.0 °F 83% 29.18 in 3.0 mi ESE 13.8 mph 21.9 mph 0.11 in Rain Rain
6:53 PM 46.9 °F - 42.1 °F 83% 29.13 in 5.0 mi East 12.7 mph 21.9 mph 0.14 in Rain Rain
7:53 PM 46.9 °F - 43.0 °F 86% 29.09 in 3.0 mi ESE 12.7 mph 18.4 mph 0.24 in Rain Heavy Rain
8:53 PM 45.0 °F 41.8 °F 43.0 °F 93% 29.05 in 5.0 mi NE 5.8 mph - 0.21 in Rain Rain
9:53 PM 43.0 °F - 39.9 °F 89% 29.00 in 4.0 mi Calm Calm - 0.22 in Rain Rain
10:38 PM 42.8 °F 38.0 °F 41.0 °F 93% 28.97 in 2.0 mi NE 8.1 mph - 0.27 in Rain Heavy Rain
10:53 PM 43.0 °F 37.2 °F 39.9 °F 89% 28.98 in 4.0 mi East 10.4 mph - 0.33 in Rain Light Rain
11:50 PM 42.8 °F 39.3 °F 39.2 °F 87% 28.97 in 10.0 mi NE 5.8 mph - 0.02 in   Overcast
11:53 PM 43.0 °F - 41.0 °F 93% 28.97 in 10.0 mi Calm Calm - 0.02 in   Overcast